Marion, IN

10:59 PM EST on February 12, 2016 (GMT -0500)
Marion Municipal

Weather History for KMZZ - December, 2012

Change the Weather History Date:

Saturday, December 1, 2012

  Actual Average (KMIE) Record (KMIE)
Temperature  
Mean Temperature 48 °F 36 °F  
Max Temperature 92 °F 43 °F 66 °F (1962)
Min Temperature 35 °F 28 °F 10 °F (1976)
Degree Days  
Heating Degree Days 17 29  
Month to date heating degree days 29  
Since 1 July heating degree days 1164  
Cooling Degree Days 0 0  
Month to date cooling degree days 0  
Year to date cooling degree days 956  
Moisture  
Dew Point 40 °F    
Average Humidity 73    
Maximum Humidity 88    
Minimum Humidity 58    
Precipitation  
Precipitation 0.00 in 0.10 in 0.95 in (2006)
Month to date precipitation 0.10  
Year to date precipitation 37.34  
Sea Level Pressure  
Sea Level Pressure 30.14 in    
Wind  
Wind Speed 8 mph (South)    
Max Wind Speed 18 mph    
Max Gust Speed 25 mph    
Visibility 8 miles    
Events      
T = Trace of Precipitation, MM = Missing Value Source: NWS Daily Summary

Daily Weather History Graph

Daily Weather History Graph

Search for Another Location

Airport or City:

Trip Planner

Search our weather history database for the weather conditions in past years. The results will help you decide how hot, cold, wet, or windy it might be!

Date:

Astronomy

Dec. 01, 2012 Rise Set
Actual Time 7:47 AM EST 5:16 PM EST
Civil Twilight 7:16 AM EST 5:46 PM EST
Nautical Twilight 6:43 AM EST 6:20 PM EST
Astronomical Twilight 6:10 AM EST 6:53 PM EST
Moon 8:06 PM EST (12/1) 9:59 AM EST (12/1)
Length of Visible Light 10h 29m
Length of Day
9h 29m
Waning Gibbous, 92% of the Moon is Illuminated
Dec 1
Waning Gibbous
Dec 6
Last Quarter
Dec 13
New
Dec 20
First Quarter
Dec 28
Full

Hourly Weather History & Observations

Time (EST) Temp. Windchill Dew Point Humidity Pressure Visibility Wind Dir Wind Speed Gust Speed Precip Events Conditions
12:15 AM 40.6 °F 37.5 °F 32.9 °F 74% 30.16 in 10.0 mi SE 4.6 mph - N/A   Scattered Clouds
12:35 AM 39.2 °F 35.9 °F 32.4 °F 76% 30.17 in 7.0 mi SE 4.6 mph - N/A   Clear
12:55 AM 38.7 °F 36.3 °F 32.2 °F 78% 30.17 in 7.0 mi SE 3.5 mph - N/A   Clear
1:15 AM 39.0 °F 35.7 °F 32.2 °F 76% 30.17 in 7.0 mi SSE 4.6 mph - N/A   Clear
1:35 AM 38.5 °F 35.0 °F 32.2 °F 78% 30.16 in 10.0 mi SSE 4.6 mph - N/A   Clear
1:55 AM 36.9 °F 33.1 °F 31.8 °F 82% 30.16 in 7.0 mi SSE 4.6 mph - N/A   Clear
2:15 AM 36.1 °F 32.3 °F 31.8 °F 84% 30.18 in 10.0 mi SE 4.6 mph - N/A   Clear
2:35 AM 36.5 °F 32.7 °F 31.6 °F 83% 30.18 in 7.0 mi South 4.6 mph - N/A   Clear
2:55 AM 35.1 °F 32.2 °F 31.5 °F 87% 30.19 in 7.0 mi SSE 3.5 mph - N/A   Clear
3:15 AM 35.2 °F 29.5 °F 31.6 °F 87% 30.18 in 7.0 mi South 6.9 mph - N/A   Clear
3:35 AM 35.6 °F 31.7 °F 31.8 °F 86% 30.19 in 7.0 mi South 4.6 mph - N/A   Clear
3:55 AM 36.0 °F 31.1 °F 32.2 °F 86% 30.18 in 7.0 mi South 5.8 mph - N/A   Clear
4:15 AM 36.5 °F 31.0 °F 32.4 °F 85% 30.17 in 7.0 mi South 6.9 mph - N/A   Clear
4:35 AM 36.0 °F 32.1 °F 32.4 °F 87% 30.17 in 7.0 mi South 4.6 mph - N/A   Clear
4:55 AM 38.1 °F 32.9 °F 33.8 °F 84% 30.18 in 7.0 mi SSW 6.9 mph - N/A   Clear
5:15 AM 39.0 °F 34.8 °F 34.3 °F 83% 30.18 in 7.0 mi South 5.8 mph - N/A   Clear
5:35 AM 38.3 °F 34.8 °F 33.6 °F 83% 30.19 in 7.0 mi South 4.6 mph - N/A   Clear
5:55 AM 37.2 °F 33.6 °F 33.3 °F 86% 30.19 in 7.0 mi South 4.6 mph - N/A   Clear
6:15 AM 37.0 °F 33.3 °F 33.3 °F 86% 30.19 in 7.0 mi South 4.6 mph - N/A   Clear
6:35 AM 36.7 °F 32.0 °F 33.3 °F 87% 30.19 in 7.0 mi South 5.8 mph - N/A   Clear
6:55 AM 36.7 °F 31.2 °F 33.3 °F 87% 30.19 in 7.0 mi South 6.9 mph - N/A   Clear
7:15 AM 37.0 °F 31.6 °F 33.8 °F 88% 30.19 in 5.0 mi South 6.9 mph - N/A   Clear
7:35 AM 37.8 °F 33.3 °F 34.3 °F 87% 30.19 in 7.0 mi South 5.8 mph - N/A   Clear
7:55 AM 37.4 °F 32.8 °F 33.8 °F 87% 30.20 in 7.0 mi South 5.8 mph - N/A   Clear
8:15 AM 37.0 °F 31.6 °F 33.8 °F 88% 30.20 in 5.0 mi South 6.9 mph - N/A   Clear
8:35 AM 37.6 °F 32.3 °F 34.3 °F 88% 30.19 in 5.0 mi South 6.9 mph - N/A   Clear
8:55 AM 39.2 °F 35.0 °F 35.6 °F 87% 30.19 in 7.0 mi South 5.8 mph - N/A   Clear
9:15 AM 41.2 °F 36.6 °F 36.7 °F 84% 30.19 in 5.0 mi South 6.9 mph - N/A   Haze
9:35 AM 43.0 °F 38.2 °F 37.8 °F 82% 30.20 in 7.0 mi South 8.1 mph - N/A   Clear
9:55 AM 44.6 °F 40.2 °F 38.8 °F 80% 30.20 in 7.0 mi South 8.1 mph - N/A   Clear
10:15 AM 46.6 °F - 39.9 °F 78% 30.20 in 7.0 mi South 9.2 mph - N/A   Clear
10:35 AM 48.7 °F - 41.2 °F 75% 30.19 in 7.0 mi SSW 10.4 mph - N/A   Clear
10:55 AM 50.2 °F - 42.3 °F 74% 30.19 in 10.0 mi SSW 10.4 mph - N/A   Clear
11:15 AM 51.4 °F - 42.3 °F 71% 30.19 in 7.0 mi South 12.7 mph - N/A   Clear
11:35 AM 52.5 °F - 42.8 °F 70% 30.19 in 7.0 mi SSW 12.7 mph - N/A   Scattered Clouds
11:55 AM 52.5 °F - 42.8 °F 70% 30.18 in 10.0 mi South 11.5 mph - N/A   Overcast
12:15 PM 53.2 °F - 43.3 °F 69% 30.16 in 7.0 mi South 11.5 mph 20.7 mph N/A   Overcast
12:35 PM 54.7 °F - 44.2 °F 68% 30.15 in 10.0 mi South 12.7 mph 17.3 mph N/A   Scattered Clouds
12:55 PM 56.1 °F - 45.0 °F 66% 30.14 in 7.0 mi South 11.5 mph - N/A   Clear
1:15 PM 57.2 °F - 45.7 °F 65% 30.13 in 10.0 mi South 10.4 mph 16.1 mph N/A   Clear
1:35 PM 58.8 °F - 46.9 °F 65% 30.12 in 10.0 mi SSW 11.5 mph - N/A   Clear
1:55 PM 59.9 °F - 46.9 °F 62% 30.11 in 7.0 mi South 13.8 mph - N/A   Clear
2:15 PM 60.4 °F - 46.0 °F 59% 30.11 in 10.0 mi SSW 16.1 mph 21.9 mph N/A   Scattered Clouds
2:35 PM 60.6 °F - 45.7 °F 58% 30.11 in 10.0 mi SSW 15.0 mph 21.9 mph N/A   Clear
2:55 PM 61.0 °F - 45.9 °F 58% 30.10 in 7.0 mi SSW 13.8 mph - N/A   Scattered Clouds
3:15 PM 60.3 °F - 46.4 °F 60% 30.10 in 10.0 mi SSW 13.8 mph 21.9 mph N/A   Mostly Cloudy
3:35 PM 60.6 °F - 46.6 °F 60% 30.10 in 10.0 mi SSW 15.0 mph - N/A   Mostly Cloudy
3:55 PM 60.8 °F - 46.4 °F 59% 30.09 in 7.0 mi SSW 12.7 mph - N/A   Mostly Cloudy
4:15 PM 60.3 °F - 46.2 °F 60% 30.09 in 7.0 mi South 11.5 mph 20.7 mph N/A   Mostly Cloudy
4:35 PM 59.9 °F - 45.9 °F 60% 30.09 in 10.0 mi South 10.4 mph - N/A   Overcast
4:55 PM 59.4 °F - 45.1 °F 59% 30.09 in 7.0 mi South 12.7 mph - N/A   Overcast
5:15 PM 58.8 °F - 45.0 °F 60% 30.09 in 10.0 mi South 9.2 mph - N/A   Overcast
5:35 PM 57.6 °F - 44.8 °F 62% 30.09 in 7.0 mi South 11.5 mph - N/A   Overcast
5:55 PM 56.7 °F - 44.6 °F 64% 30.09 in 10.0 mi South 10.4 mph - N/A   Mostly Cloudy
6:15 PM 55.8 °F - 44.1 °F 65% 30.09 in 10.0 mi South 10.4 mph - N/A   Scattered Clouds
6:35 PM 55.0 °F - 44.1 °F 67% 30.08 in 10.0 mi SSE 9.2 mph - N/A   Scattered Clouds
6:55 PM 55.2 °F - 43.9 °F 66% 30.08 in 10.0 mi South 12.7 mph - N/A   Clear
7:15 PM 55.4 °F - 44.1 °F 66% 30.08 in 10.0 mi South 12.7 mph - N/A   Clear
7:35 PM 55.4 °F - 44.1 °F 66% 30.08 in 10.0 mi South 12.7 mph - N/A   Clear
7:55 PM 55.4 °F - 44.1 °F 66% 30.08 in 10.0 mi South 15.0 mph - N/A   Clear
8:15 PM 55.2 °F - 43.9 °F 66% 30.07 in 7.0 mi South 15.0 mph - N/A   Clear
8:35 PM 55.4 °F - 43.7 °F 65% 30.08 in 10.0 mi South 12.7 mph - N/A   Mostly Cloudy
9:15 PM 55.4 °F - 43.7 °F 65% 30.07 in 7.0 mi South 12.7 mph 18.4 mph N/A   Overcast
9:35 PM 55.0 °F - 43.7 °F 66% 30.07 in 7.0 mi South 12.7 mph - N/A   Overcast
9:55 PM 55.4 °F - 43.9 °F 65% 30.07 in 7.0 mi South 16.1 mph - N/A   Overcast
10:15 PM 55.9 °F - 43.7 °F 63% 30.07 in 10.0 mi South 18.4 mph 25.3 mph N/A   Overcast
10:35 PM 55.9 °F - 43.7 °F 63% 30.07 in 10.0 mi South 17.3 mph 23.0 mph N/A   Overcast
10:55 PM 56.1 °F - 43.7 °F 63% 30.06 in 10.0 mi South 15.0 mph 21.9 mph N/A   Overcast
11:15 PM 56.3 °F - 43.5 °F 62% 30.06 in 10.0 mi South 15.0 mph 21.9 mph N/A   Overcast
11:35 PM 56.3 °F - 43.3 °F 62% 30.06 in 7.0 mi SSW 16.1 mph - N/A   Overcast
11:55 PM 56.5 °F - 43.2 °F 61% 30.05 in 10.0 mi South 18.4 mph 23.0 mph N/A   Overcast